Tracking 28790 objects as of 19-Apr-2024
HD Live streaming from Space Station
objects crossing your sky now

STARLINK 1014

Track STARLINK 1014 now!
10-day predictions
STARLINK 1014 is classified as:


NORAD ID: 44720
Int'l Code: 2019-074H
Perigee: 547.2 km
Apogee: 551.1 km
Inclination: 53.1 °
Period: 95.5 minutes
Semi major axis: 6920 km
RCS: Unknown
Launch date: November 11, 2019
Source: United States (US)
Launch site: AIR FORCE EASTERN TEST RANGE (AFETR)
Your satellite tracking list
Your tracking list is empty




NASA's NSSDC Master Catalog

Two Line Element Set (TLE):
1 44720U 19074H   24110.18200929  .00022723  00000-0  14706-2 0  9993
2 44720  53.0555  41.4190 0002800 110.8268 249.3022 15.08092643245008
Source of the keplerian elements: AFSPC